Location: Unspecified
(0.0000°N, 0.0000°E)
Time: 07:43:07
(UTC+00:00)

Hubble Space Telescope - Pass Details

Date: 23 September 2021
Orbit: 535 x 539 km, 28.5° (Epoch: 17 September)

Event Time Altitude Azimuth Distance (km) Brightness Sun altitude
Rises 19:52:19 0° 313° (NW) 2,662 4.9 -30.0°
Reaches altitude 10° 19:54:41 10° 321° (NW) 1,775 3.8 -30.6°
Enters shadow 19:55:10 13° 324° (NW) 1,605 3.5 -30.7°
